When you browse on this site, cookies collect data to enhance your experience and personalize the content and advertising you see.
Visit our Privacy Policy to learn more. By continuing to use the site, you agree to this use of cookies and data.
  • Em Portugal
  • Lista de países
  • Para 7 dias
  • Temperatura da água
  • Mapas de satélite
  • Mapa do tempo
  • Widgets de tempo
  • user-avatar
    Iniciar Sessão

    Previsão horária em Torez

    Hoje, 25 Maio, Sábado

    Tempo Temperatura Precipitação Vento Pressão Humidade
    00:00 +16°C° 0 mm 1 m/s 738 mmHg 87%
    01:00 +16°C° 0 mm 1 m/s 738 mmHg 86%
    02:00 +15°C° 0 mm 1 m/s 738 mmHg 85%
    03:00 +15°C° 0 mm 1 m/s 738 mmHg 84%
    04:00 +15°C° 0 mm 1 m/s 738 mmHg 83%
    05:00 +16°C° 0 mm 1 m/s 738 mmHg 81%
    06:00 +16°C° 0 mm 1 m/s 738 mmHg 80%
    07:00 +18°C° 0.1 mm 2 m/s 738 mmHg 77%
    08:00 +19°C° 0.1 mm 3 m/s 738 mmHg 74%
    09:00 +21°C° 0.1 mm 3 m/s 738 mmHg 71%
    10:00 +22°C° 1.8 mm 4 m/s 738 mmHg 69%
    11:00 +22°C° 1.8 mm 4 m/s 738 mmHg 66%
    12:00 +23°C° 1.8 mm 4 m/s 738 mmHg 64%
    13:00 +22°C° 3.1 mm 4 m/s 737 mmHg 68%
    14:00 +22°C° 3.1 mm 4 m/s 737 mmHg 73%
    15:00 +21°C° 3.1 mm 4 m/s 737 mmHg 77%
    16:00 +20°C° 1.5 mm 3 m/s 737 mmHg 82%
    17:00 +19°C° 1.5 mm 2 m/s 737 mmHg 86%
    18:00 +18°C° 1.5 mm 2 m/s 736 mmHg 91%
    19:00 +18°C° 0.2 mm 2 m/s 736 mmHg 92%
    20:00 +17°C° 0.2 mm 2 m/s 736 mmHg 92%
    21:00 +17°C° 0.2 mm 3 m/s 736 mmHg 93%
    22:00 +17°C° 0.1 mm 3 m/s 736 mmHg 94%
    23:00 +16°C° 0.1 mm 3 m/s 736 mmHg 95%

    Amanhã, 26 Maio, Domingo

    Tempo Temperatura Precipitação Vento Pressão Humidade
    00:00 +16°C° 0.1 mm 3 m/s 736 mmHg 96%
    01:00 +16°C° 0 mm 3 m/s 736 mmHg 96%
    02:00 +14°C° 0 mm 3 m/s 736 mmHg 96%
    03:00 +14°C° 0 mm 3 m/s 736 mmHg 96%
    04:00 +14°C° 0 mm 3 m/s 736 mmHg 95%
    05:00 +14°C° 0 mm 4 m/s 736 mmHg 94%
    06:00 +15°C° 0 mm 4 m/s 737 mmHg 93%
    07:00 +15°C° 0.1 mm 5 m/s 737 mmHg 90%
    08:00 +16°C° 0.1 mm 5 m/s 737 mmHg 86%
    09:00 +17°C° 0.1 mm 6 m/s 737 mmHg 82%
    10:00 +19°C° 0.2 mm 6 m/s 737 mmHg 78%
    11:00 +20°C° 0.2 mm 7 m/s 737 mmHg 73%
    12:00 +22°C° 0.2 mm 7 m/s 737 mmHg 68%
    13:00 +22°C° 0.7 mm 7 m/s 737 mmHg 68%
    14:00 +22°C° 0.7 mm 7 m/s 737 mmHg 68%
    15:00 +22°C° 0.7 mm 7 m/s 737 mmHg 68%
    16:00 +22°C° 0.5 mm 6 m/s 737 mmHg 70%
    17:00 +22°C° 0.5 mm 5 m/s 737 mmHg 72%
    18:00 +21°C° 0.5 mm 4 m/s 737 mmHg 74%
    19:00 +20°C° 0.2 mm 4 m/s 737 mmHg 78%
    20:00 +19°C° 0.2 mm 3 m/s 738 mmHg 82%
    21:00 +18°C° 0.2 mm 3 m/s 738 mmHg 87%
    22:00 +18°C° 0.1 mm 3 m/s 739 mmHg 87%
    23:00 +17°C° 0.1 mm 3 m/s 739 mmHg 88%

    Depois de amanhã, 27 Maio, Segunda-feira

    Tempo Temperatura Precipitação Vento Pressão Humidade
    00:00 +17°C° 0.1 mm 3 m/s 739 mmHg 89%
    01:00 +17°C° 0 mm 3 m/s 740 mmHg 90%
    02:00 +17°C° 0 mm 3 m/s 740 mmHg 91%
    03:00 +16°C° 0 mm 3 m/s 740 mmHg 93%
    04:00 +16°C° 0 mm 3 m/s 741 mmHg 92%
    05:00 +16°C° 0 mm 3 m/s 741 mmHg 91%
    06:00 +16°C° 0 mm 3 m/s 742 mmHg 91%
    07:00 +18°C° 0 mm 3 m/s 743 mmHg 83%
    08:00 +20°C° 0 mm 4 m/s 743 mmHg 76%
    09:00 +21°C° 0 mm 4 m/s 744 mmHg 68%
    10:00 +22°C° 0 mm 4 m/s 744 mmHg 62%
    11:00 +23°C° 0 mm 4 m/s 744 mmHg 56%
    12:00 +25°C° 0 mm 4 m/s 744 mmHg 49%
    13:00 +26°C° 0 mm 4 m/s 745 mmHg 48%
    14:00 +26°C° 0 mm 3 m/s 745 mmHg 46%
    15:00 +26°C° 0 mm 3 m/s 745 mmHg 45%
    16:00 +26°C° 0 mm 3 m/s 745 mmHg 49%
    17:00 +26°C° 0 mm 3 m/s 745 mmHg 52%
    18:00 +26°C° 0 mm 2 m/s 745 mmHg 56%
    19:00 +24°C° 0 mm 2 m/s 745 mmHg 61%
    20:00 +22°C° 0 mm 1 m/s 745 mmHg 65%
    21:00 +21°C° 0 mm 1 m/s 746 mmHg 70%
    22:00 +20°C° 0 mm 1 m/s 746 mmHg 72%
    23:00 +20°C° 0 mm 1 m/s 746 mmHg 73%

    28 Maio, Terça-feira

    Tempo Temperatura Precipitação Vento Pressão Humidade
    00:00 +17°C° 0 mm 0 m/s 746 mmHg 75%
    01:00 +17°C° 0 mm 0 m/s 746 mmHg 77%
    02:00 +16°C° 0 mm 0 m/s 746 mmHg 79%
    03:00 +18°C° 0 mm 1 m/s 746 mmHg 80%
    04:00 +17°C° 0 mm 0 m/s 746 mmHg 80%
    05:00 +17°C° 0 mm 0 m/s 746 mmHg 79%
    06:00 +18°C° 0 mm 0 m/s 746 mmHg 79%
    07:00 +22°C° 0 mm 1 m/s 747 mmHg 73%
    08:00 +23°C° 0 mm 1 m/s 747 mmHg 66%
    09:00 +25°C° 0 mm 1 m/s 747 mmHg 60%
    10:00 +26°C° 0 mm 1 m/s 747 mmHg 57%
    11:00 +27°C° 0 mm 1 m/s 747 mmHg 53%
    12:00 +28°C° 0 mm 1 m/s 747 mmHg 50%
    13:00 +28°C° 0 mm 1 m/s 747 mmHg 50%
    14:00 +28°C° 0 mm 1 m/s 747 mmHg 51%
    15:00 +28°C° 0 mm 2 m/s 747 mmHg 51%
    16:00 +28°C° 0 mm 2 m/s 747 mmHg 53%
    17:00 +28°C° 0 mm 2 m/s 746 mmHg 56%
    18:00 +27°C° 0 mm 2 m/s 746 mmHg 58%
    19:00 +26°C° 0 mm 2 m/s 746 mmHg 63%
    20:00 +24°C° 0 mm 2 m/s 746 mmHg 68%
    21:00 +21°C° 0 mm 2 m/s 746 mmHg 72%
    22:00 +22°C° 0 mm 1 m/s 746 mmHg 74%
    23:00 +21°C° 0 mm 1 m/s 746 mmHg 75%

    29 Maio, Quarta-feira

    Tempo Temperatura Precipitação Vento Pressão Humidade
    00:00 +20°C° 0 mm 1 m/s 746 mmHg 77%
    01:00 +20°C° 0 mm 1 m/s 746 mmHg 78%
    02:00 +20°C° 0 mm 1 m/s 746 mmHg 78%
    03:00 +20°C° 0 mm 1 m/s 746 mmHg 79%
    04:00 +20°C° 0 mm 1 m/s 746 mmHg 79%
    05:00 +20°C° 0 mm 1 m/s 746 mmHg 79%
    06:00 +21°C° 0 mm 1 m/s 746 mmHg 80%
    07:00 +21°C° 0 mm 2 m/s 746 mmHg 74%
    08:00 +24°C° 0 mm 2 m/s 746 mmHg 68%
    09:00 +26°C° 0 mm 3 m/s 747 mmHg 62%
    10:00 +27°C° 0 mm 3 m/s 746 mmHg 59%
    11:00 +27°C° 0 mm 4 m/s 746 mmHg 57%
    12:00 +28°C° 0 mm 5 m/s 746 mmHg 54%
    13:00 +28°C° 0 mm 5 m/s 746 mmHg 53%
    14:00 +29°C° 0 mm 5 m/s 746 mmHg 53%
    15:00 +29°C° 0 mm 5 m/s 745 mmHg 52%
    16:00 +28°C° 0 mm 4 m/s 745 mmHg 55%
    17:00 +28°C° 0 mm 4 m/s 745 mmHg 57%
    18:00 +28°C° 0 mm 3 m/s 745 mmHg 60%
    19:00 +26°C° 0 mm 3 m/s 745 mmHg 64%
    20:00 +24°C° 0 mm 3 m/s 745 mmHg 68%
    21:00 +21°C° 0 mm 2 m/s 745 mmHg 73%
    22:00 +21°C° 0 mm 2 m/s 745 mmHg 74%
    23:00 +20°C° 0 mm 2 m/s 745 mmHg 74%

    30 Maio, Quinta-feira

    Tempo Temperatura Precipitação Vento Pressão Humidade
    00:00 +19°C° 0 mm 2 m/s 745 mmHg 75%
    01:00 +19°C° 0 mm 2 m/s 744 mmHg 76%
    02:00 +19°C° 0 mm 2 m/s 744 mmHg 76%
    03:00 +18°C° 0 mm 2 m/s 744 mmHg 77%
    04:00 +19°C° 0 mm 2 m/s 744 mmHg 76%
    05:00 +19°C° 0 mm 2 m/s 744 mmHg 75%
    06:00 +19°C° 0 mm 2 m/s 744 mmHg 75%
    07:00 +21°C° 0 mm 2 m/s 744 mmHg 69%
    08:00 +24°C° 0 mm 3 m/s 745 mmHg 63%
    09:00 +26°C° 0 mm 3 m/s 745 mmHg 57%
    10:00 +27°C° 0 mm 3 m/s 744 mmHg 52%
    11:00 +28°C° 0 mm 3 m/s 744 mmHg 47%
    12:00 +29°C° 0 mm 3 m/s 744 mmHg 42%
    13:00 +30°C° 0 mm 3 m/s 744 mmHg 41%
    14:00 +30°C° 0 mm 3 m/s 744 mmHg 40%
    15:00 +30°C° 0 mm 3 m/s 744 mmHg 39%
    16:00 +30°C° 0 mm 2 m/s 744 mmHg 42%
    17:00 +30°C° 0 mm 2 m/s 743 mmHg 46%
    18:00 +30°C° 0 mm 2 m/s 743 mmHg 50%
    19:00 +28°C° 0 mm 2 m/s 743 mmHg 53%
    20:00 +26°C° 0 mm 2 m/s 743 mmHg 56%
    21:00 +23°C° 0 mm 2 m/s 743 mmHg 60%
    22:00 +23°C° 0 mm 2 m/s 743 mmHg 61%
    23:00 +21°C° 0 mm 2 m/s 743 mmHg 63%
    Mostrar mais